Temperature
15 15 15 15 15 15 15 15 16 16 15 15 16 15 15 15 15 15 15 15 15 15 15 15 15 15 15 15 15 15 14 14 14 14 14 14 14 14 14 14 14 14 14
16 15 15 15 15 15 15 15 15 15 15 15 15 15 15 15 15 15 15 15 15 15 15 15 15 15 15 15 15 14 14 14 14 14 14 14 14 14 14 14 13 13 13
16 15 15 15 15 15 15 15 15 15 15 15 15 15 15 15 15 15 15 15 15 15 15 15 15 15 15 15 15 14 14 14 14 14 14 14 13 13 13 13 13 13 13
15 15 15 15 15 15 15 15 15 15 15 15 15 15 15 15 15 15 15 15 15 15 14 14 14 14 14 14 14 14 14 14 14 14 14 13 13 13 13 13 13 13 13
15 15 15 15 15 15 15 15 15 15 15 15 15 15 15 15 15 15 15 14 14 14 14 14 14 14 14 14 14 14 14 14 14 14 13 13 13 13 13 13 12 12 12
14 14 14 14 14 15 15 15 14 14 14 14 15 15 15 15 15 15 14 14 14 14 14 14 14 14 14 14 14 14 14 13 13 13 13 13 13 13 12 12 12 12 12
14 14 14 14 14 14 14 14 14 14 14 14 14 14 15 15 15 15 14 14 14 14 14 14 14 14 14 14 14 13 13 13 13 13 13 13 13 12 12 12 12 12 12
14 14 14 13 14 14 14 14 14 14 14 14 14 14 14 14 14 14 14 14 14 14 14 14 14 14 13 14 13 13 13 13 13 13 13 12 12 12 12 12 12 12 12
13 13 13 13 13 14 14 14 14 14 14 14 14 14 14 14 14 14 14 14 14 14 14 14 13 13 13 13 13 13 13 13 13 12 12 12 12 12 12 11 12 11 11
13 13 13 13 13 13 13 13 13 13 13 13 13 14 14 14 14 13 14 14 13 13 13 13 13 13 13 13 13 12 12 12 12 12 12 12 12 11 11 11 11 11 11
12 12 12 13 13 13 13 13 13 13 13 13 13 13 13 13 13 13 13 13 13 13 13 13 13 13 13 12 12 12 12 12 12 12 12 12 11 11 11 11 11 11 11
12 12 12 12 12 12 12 13 13 13 13 13 13 13 13 13 13 13 13 13 13 13 13 13 13 13 13 12 12 12 12 12 12 12 12 11 11 11 11 11 11 11 11
12 12 12 12 12 12 12 12 12 12 12 12 12 12 12 12 13 13 12 12 12 12 12 12 12 12 12 12 12 12 12 12 11 11 11 11 11 11 11 11 10 10 10
11 11 11 11 12 12 12 12 12 12 12 12 12 12 12 12 12 12 12 12 12 12 12 12 12 12 12 12 12 11 11 11 11 11 11 11 11 10 10 10 10 10 10
11 11 11 11 11 11 11 12 12 12 12 12 12 12 12 12 12 12 12 12 12 11 11 11 11 11 11 11 11 11 11 11 11 11 11 10 10 10 10 10 10 10 10
10 10 10 10 11 11 11 11 11 11 11 11 11 11 11 11 11 11 11 11 11 11 11 11 11 11 11 11 11 11 11 11 10 10 10 10 10 10 10 10 10 9 9
9 10 10 10 10 10 10 11 11 11 11 11 11 11 11 11 11 11 11 11 11 11 11 11 10 11 11 10 10 10 10 10 10 10 10 10 10 10 10 10 10 9 9
9 9 9 10 10 10 10 10 10 10 10 10 10 10 10 10 10 11 10 10 11 10 10 10 10 10 10 10 10 10 10 10 10 10 10 10 10 9 9 9 9 9 9
9 9 9 9 9 9 10 10 10 10 10 10 10 10 10 10 10 10 10 10 10 10 10 10 10 10 10 10 10 9 9 9 9 9 9 9 9 9 9 9 9 9 9
8 9 9 9 9 9 9 9 9 9 9 9 9 10 10 10 10 10 10 10 10 9 9 9 9 9 9 9 9 9 9 9 9 9 9 9 9 9 9 9 9 8 8
8 8 8 8 9 9 9 9 9 9 9 9 9 9 9 9 9 9 9 9 9 9 9 9 9 9 9 9 9 8 8 8 9 9 9 9 9 9 8 8 8 8 8
7 8 8 8 8 9 9 9 8 8 9 9 9 9 9 9 9 9 9 9 9 9 9 8 8 8 8 8 8 8 7 8 8 8 8 8 8 8 8 8 8 8 7
7 7 7 7 8 8 8 8 8 8 8 8 8 8 8 8 8 8 8 8 8 8 8 8 8 8 8 8 8 7 7 7 7 7 8 8 7 7 7 7 7 7 7
7 7 7 7 7 8 8 7 7 8 8 8 8 8 8 8 8 8 8 8 8 8 8 8 8 8 8 7 7 7 7 7 7 6 7 7 7 7 7 7 7 6 6
6 6 7 7 7 7 7 7 7 7 7 7 7 7 7 7 7 8 8 8 8 8 8 8 7 7 7 7 7 7 7 7 7 6 6 6 6 6 6 6 6 6 6
6 6 6 6 7 7 7 7 7 7 7 7 7 7 7 7 7 7 7 8 7 7 7 7 7 7 7 7 7 7 7 6 6 6 6 6 6 6 6 6 6 6 6
Wind_Speed
1 1 5 7 7 8 7 8 9 9 10 10 10 10 9 10 10 10 10 9 9 10 11 11 11 12 13 13 13 13 13 13 14 13 13 13 13 13 13 13 13 12 14
2 3 6 7 8 8 7 7 8 9 9 9 10 10 9 9 9 9 9 9 9 10 10 11 11 12 12 12 12 13 13 13 13 13 13 12 11 12 12 13 12 12 14
2 4 6 7 8 8 7 7 8 8 8 9 9 9 9 9 9 9 9 9 9 10 10 10 11 11 11 12 12 12 12 12 12 12 12 11 10 11 12 13 13 13 14
3 4 5 7 8 8 7 7 7 7 7 8 8 8 8 8 8 8 8 8 9 10 10 10 10 11 11 11 11 11 11 12 12 11 10 9 9 11 12 12 13 13 13
3 3 4 7 8 8 8 7 7 6 7 7 7 7 7 7 7 7 8 8 9 10 10 10 10 10 10 11 11 11 11 11 11 11 10 9 8 10 11 11 11 12 12
3 3 3 5 8 8 8 7 6 6 6 6 7 7 7 7 7 7 7 8 8 9 9 9 9 10 10 10 10 11 11 11 11 10 9 8 7 9 9 10 10 10 10
2 3 2 5 7 7 7 6 6 6 6 5 6 6 7 7 6 6 7 7 8 8 8 8 9 10 9 9 10 10 10 10 10 8 7 6 6 8 8 8 8 9 9
2 2 2 4 6 6 6 6 5 5 6 5 5 6 6 6 6 6 6 6 7 7 7 8 8 9 9 10 9 9 9 9 8 7 6 5 6 7 7 8 8 8 8
3 3 3 3 4 5 5 5 5 5 5 5 4 5 5 6 6 6 6 5 6 6 6 7 8 8 8 9 8 8 8 8 7 5 5 4 6 6 7 7 7 7 7
4 4 3 3 3 4 4 4 4 5 5 5 5 5 5 6 6 6 5 5 5 6 6 7 8 7 8 8 8 7 8 7 7 5 4 4 5 6 6 7 7 7 7
3 2 3 3 3 3 3 3 4 4 4 5 5 5 5 5 5 4 4 5 5 5 6 7 7 7 7 7 7 7 7 6 6 5 3 3 4 6 6 6 6 6 7
1 1 1 2 3 3 3 3 3 3 3 4 4 5 5 4 4 4 4 4 4 5 5 6 6 7 7 7 7 7 6 5 5 4 3 3 4 5 5 6 6 6 6
2 1 1 1 2 2 2 3 3 3 3 4 4 5 5 5 4 4 4 3 4 5 5 4 5 5 6 6 5 5 5 5 4 4 3 4 4 3 4 4 4 5 5
1 2 1 1 1 1 2 2 3 3 3 3 3 4 5 3 3 3 3 3 3 4 4 4 4 5 5 5 5 5 5 4 4 4 4 4 3 3 3 3 4 4 4
2 2 2 0 0 1 1 1 2 2 2 2 3 3 4 3 2 2 2 3 3 3 3 3 3 4 4 5 4 5 4 4 3 4 4 5 4 3 3 2 3 3 3
3 3 2 1 1 1 1 1 1 1 2 2 2 3 3 3 2 2 2 2 3 3 3 3 4 3 3 4 4 4 4 3 3 4 4 4 5 4 3 3 3 3 3
3 3 2 2 1 1 1 1 1 1 2 2 2 3 3 3 3 3 2 2 2 2 3 4 4 4 3 3 3 3 3 3 3 4 4 4 5 5 4 4 3 3 3
3 3 2 1 1 2 1 1 1 1 2 2 2 3 2 2 3 3 3 2 2 3 3 3 3 3 3 2 2 2 2 2 3 3 4 4 5 5 5 5 5 4 3
3 3 2 2 2 2 2 1 1 1 1 1 1 2 2 2 3 3 2 2 3 3 2 3 2 3 2 2 2 2 2 2 2 3 3 4 4 5 5 5 5 5 4
3 2 2 2 2 1 1 1 1 0 0 1 1 1 2 2 3 3 2 3 4 3 2 2 3 3 2 2 2 2 2 1 2 2 2 3 4 5 5 5 5 5 5
2 1 2 2 2 1 1 2 2 2 2 1 1 1 2 2 3 3 2 3 3 3 3 3 3 3 2 2 2 2 2 2 1 1 2 2 3 4 4 5 5 4 4
3 2 2 2 3 3 2 2 2 2 2 2 1 1 2 2 2 3 4 3 4 4 4 4 3 2 1 2 2 2 1 1 1 1 1 1 1 2 3 3 3 3 4
3 3 3 3 3 3 2 1 1 1 0 1 2 2 1 2 2 2 3 3 3 4 4 4 4 3 2 1 1 2 2 2 1 1 1 0 0 0 1 2 2 2 2
5 4 3 3 3 3 3 3 3 3 3 3 2 2 2 2 3 3 3 3 4 3 4 5 3 2 4 2 1 0 1 2 1 1 1 1 0 1 1 1 1 1 2
3 3 2 3 2 2 2 4 5 4 3 2 1 2 2 2 2 3 3 3 3 3 3 4 4 3 3 3 2 1 1 1 1 2 2 2 1 1 1 1 0 1 1
3 2 2 2 3 2 2 2 5 5 4 3 2 3 2 2 2 3 3 3 3 3 3 3 4 4 3 3 2 2 2 2 2 1 2 3 2 2 2 1 1 1 1
Wind_Direction
246 209 155 140 130 122 118 117 113 110 107 106 105 107 112 115 112 112 108 105 103 102 100 98 98 96 92 88 85 82 81 81 79 77 76 76 77 76 75 74 70 67 65
156 162 150 142 134 126 118 117 115 113 111 109 109 107 107 113 113 110 110 110 109 108 105 100 96 93 91 89 86 84 82 82 80 75 72 72 75 79 80 77 74 74 70
111 146 148 144 138 132 126 116 115 116 115 113 110 109 109 111 114 114 110 111 113 110 106 102 97 93 92 92 89 86 84 83 80 74 68 63 70 78 81 78 77 76 73
106 129 144 147 143 137 132 125 117 120 122 119 117 114 113 113 113 112 113 114 116 113 107 103 100 96 93 93 92 90 86 83 79 73 63 59 65 77 79 77 76 76 75
71 101 141 147 145 139 136 131 126 121 126 127 126 121 119 115 114 113 110 113 117 115 110 107 104 100 97 96 94 92 88 83 78 71 64 59 64 77 78 76 74 75 77
59 68 126 141 144 139 137 134 128 126 122 128 129 127 126 121 117 112 111 110 113 117 118 115 111 106 104 100 97 95 91 86 76 69 62 59 65 79 80 79 77 76 76
62 63 105 140 141 140 138 136 138 134 129 123 133 133 130 128 121 116 116 112 112 114 122 121 115 111 110 108 103 99 96 89 77 68 60 59 73 83 85 82 80 79 77
78 76 104 141 142 140 143 142 141 144 140 134 131 136 132 131 125 119 120 119 116 117 117 120 118 113 112 110 108 104 99 91 79 69 62 67 83 85 85 86 84 81 77
54 60 62 107 130 140 144 151 150 144 139 134 130 127 132 133 131 126 118 121 125 125 126 122 119 116 115 112 109 105 97 90 79 70 61 70 83 82 83 84 81 78 74
39 43 47 66 96 112 127 141 148 148 141 131 120 108 113 125 125 123 116 114 119 130 130 129 116 118 116 113 109 103 97 89 76 68 61 80 83 83 81 81 78 75 71
15 23 30 45 66 88 110 125 130 135 133 125 117 107 95 102 113 115 112 115 111 119 129 127 122 112 114 110 108 103 95 86 78 66 65 83 87 85 79 78 76 71 70
295 316 14 38 58 68 79 85 93 103 108 107 103 102 98 95 103 107 113 120 117 112 118 122 115 102 97 97 100 96 90 87 75 63 62 71 85 85 80 77 75 72 69
249 266 318 33 65 79 74 77 77 89 94 98 102 100 99 90 91 88 89 92 95 92 81 91 86 86 87 95 97 94 93 86 72 62 59 62 73 85 86 79 80 78 76
272 269 279 28 54 83 91 100 90 86 90 90 105 110 101 85 76 79 84 85 78 76 74 74 77 84 83 90 101 97 90 84 74 59 54 54 53 69 79 85 87 84 79
261 272 275 317 107 84 90 102 103 106 114 120 117 117 115 102 104 93 87 87 79 78 83 85 83 90 88 80 90 95 88 79 74 61 47 47 44 43 45 75 84 83 78
280 267 271 275 230 131 121 124 122 116 122 125 127 130 135 131 120 114 106 92 86 91 98 102 96 98 96 88 82 91 98 98 81 70 57 45 42 37 32 46 58 67 65
280 280 261 247 242 191 187 173 134 126 124 133 140 146 146 145 138 133 129 116 95 101 99 95 90 87 88 85 78 84 95 96 90 74 65 57 48 43 42 39 42 52 55
276 277 275 264 252 235 226 188 154 149 131 133 146 152 151 145 142 131 135 133 107 104 100 117 113 98 84 89 86 66 79 86 85 80 69 64 61 50 47 43 36 34 31
256 253 271 261 243 247 240 190 155 136 137 128 119 143 149 142 134 133 140 131 114 100 101 114 110 109 106 87 89 68 51 67 77 84 72 67 67 62 57 48 42 31 27
257 253 255 264 245 246 245 182 165 184 156 117 143 159 156 148 139 129 135 132 123 127 117 112 112 97 112 104 85 63 33 30 65 73 72 71 69 63 58 52 46 32 29
277 285 265 258 241 203 222 209 201 220 215 195 191 172 153 151 142 138 136 147 148 154 154 144 125 111 96 92 76 52 22 22 54 54 52 64 66 61 58 53 46 41 33
274 278 270 255 237 215 221 220 212 203 205 203 193 165 146 143 149 156 155 163 163 154 147 147 130 128 110 109 109 102 26 343 351 347 17 81 53 60 58 50 51 47 36
269 270 267 259 246 228 216 208 152 121 125 188 195 195 187 163 162 159 167 162 160 161 164 167 162 149 161 176 122 135 154 220 313 314 286 290 316 44 30 52 48 32 23
264 263 264 259 250 236 203 188 180 196 209 217 205 201 201 185 172 168 170 165 160 163 172 180 178 171 163 177 168 95 151 159 183 294 311 284 304 295 279 4 32 17 10
277 266 261 263 257 247 220 202 197 209 213 207 189 191 188 201 190 174 170 173 168 170 177 179 178 175 177 180 177 169 114 84 150 205 267 272 284 257 245 244 265 347 337
318 305 282 274 269 253 236 227 206 206 200 190 200 196 192 198 206 190 168 172 171 170 177 178 180 183 187 175 173 173 172 177 184 200 244 263 267 267 261 241 243 263 295
Height
1516 1518 1519 1521 1522 1523 1524 1525 1526 1526 1527 1528 1528 1529 1529 1530 1530 1531 1532 1532 1533 1533 1534 1534 1534 1534 1534 1534 1534 1534 1535 1535 1535 1535 1535 1535 1535 1535 1534 1534 1534 1533 1533
1516 1517 1519 1520 1522 1523 1524 1525 1526 1527 1527 1528 1529 1529 1530 1530 1531 1532 1532 1533 1534 1534 1534 1535 1535 1535 1535 1535 1535 1535 1536 1536 1536 1536 1536 1536 1536 1536 1536 1535 1535 1535 1534
1516 1517 1518 1520 1522 1523 1524 1525 1526 1527 1527 1528 1529 1529 1530 1531 1531 1532 1533 1533 1534 1535 1535 1535 1535 1536 1536 1536 1536 1536 1536 1537 1537 1537 1537 1537 1537 1537 1537 1536 1536 1536 1535
1516 1517 1518 1520 1521 1523 1524 1524 1525 1526 1527 1528 1529 1529 1530 1531 1532 1532 1533 1534 1534 1535 1535 1536 1536 1536 1536 1537 1537 1537 1537 1537 1537 1537 1537 1537 1538 1538 1538 1537 1537 1537 1536
1516 1517 1518 1520 1521 1522 1523 1524 1525 1526 1527 1528 1529 1529 1530 1531 1531 1532 1533 1534 1534 1535 1535 1536 1536 1536 1537 1537 1537 1538 1538 1538 1538 1538 1538 1538 1538 1539 1538 1538 1538 1538 1537
1516 1517 1518 1519 1521 1522 1523 1524 1524 1525 1526 1527 1528 1529 1530 1530 1531 1532 1533 1533 1534 1535 1535 1536 1536 1537 1537 1537 1538 1538 1538 1538 1538 1539 1539 1539 1539 1539 1539 1539 1539 1538 1538
1515 1516 1517 1519 1520 1521 1522 1523 1524 1525 1526 1526 1527 1528 1529 1530 1531 1532 1532 1533 1533 1534 1535 1536 1536 1536 1537 1537 1538 1538 1538 1539 1539 1539 1539 1540 1540 1540 1540 1539 1539 1539 1539
1515 1516 1517 1518 1519 1520 1521 1522 1523 1524 1525 1525 1526 1527 1528 1529 1530 1531 1531 1532 1533 1534 1534 1535 1536 1536 1537 1537 1537 1538 1538 1539 1539 1539 1540 1540 1540 1540 1540 1540 1540 1539 1539
1515 1515 1516 1517 1518 1519 1520 1521 1522 1523 1524 1524 1525 1526 1527 1528 1529 1530 1530 1531 1532 1533 1533 1534 1535 1536 1536 1537 1537 1538 1538 1539 1539 1540 1540 1540 1540 1540 1540 1540 1540 1540 1540
1514 1514 1515 1516 1517 1517 1518 1520 1521 1521 1522 1523 1524 1525 1526 1527 1528 1528 1529 1530 1531 1532 1533 1533 1534 1535 1536 1536 1537 1538 1538 1538 1539 1540 1540 1540 1540 1540 1540 1540 1540 1540 1540
1512 1513 1514 1514 1515 1516 1517 1518 1519 1520 1521 1522 1522 1523 1524 1525 1526 1527 1528 1529 1530 1531 1532 1532 1533 1534 1535 1536 1536 1537 1538 1538 1539 1539 1540 1540 1540 1540 1540 1540 1540 1540 1540
1510 1511 1512 1513 1514 1514 1515 1516 1517 1518 1519 1520 1521 1521 1522 1524 1525 1526 1527 1528 1529 1529 1530 1531 1532 1533 1533 1534 1535 1536 1537 1538 1538 1539 1539 1540 1540 1540 1540 1540 1539 1539 1539
1509 1509 1510 1511 1512 1513 1513 1514 1515 1516 1517 1518 1519 1520 1521 1522 1523 1524 1525 1526 1527 1528 1529 1530 1531 1532 1532 1533 1534 1535 1536 1537 1537 1538 1538 1539 1539 1539 1539 1539 1539 1538 1538
1507 1508 1508 1509 1510 1510 1511 1512 1513 1514 1514 1516 1517 1518 1519 1520 1521 1522 1523 1524 1525 1526 1527 1528 1529 1530 1531 1532 1533 1534 1535 1536 1537 1537 1537 1538 1538 1538 1538 1538 1538 1538 1538
1505 1506 1506 1507 1508 1508 1509 1510 1511 1512 1512 1513 1514 1516 1517 1518 1519 1520 1521 1522 1523 1524 1525 1526 1528 1528 1530 1531 1532 1533 1534 1535 1535 1536 1536 1537 1537 1537 1537 1537 1537 1537 1536
1504 1504 1504 1504 1505 1506 1507 1508 1508 1509 1510 1511 1512 1513 1515 1516 1517 1518 1519 1520 1521 1522 1524 1525 1526 1527 1528 1529 1530 1531 1532 1533 1534 1535 1535 1535 1536 1536 1536 1536 1536 1536 1535
1501 1502 1502 1502 1503 1503 1504 1505 1506 1507 1508 1509 1510 1511 1512 1513 1514 1516 1517 1518 1519 1520 1522 1523 1524 1525 1526 1527 1528 1530 1531 1531 1532 1533 1533 1534 1534 1534 1534 1534 1534 1534 1534
1499 1499 1499 1500 1500 1500 1501 1502 1503 1504 1505 1506 1507 1508 1509 1511 1512 1513 1515 1515 1517 1518 1519 1520 1522 1523 1524 1525 1526 1527 1529 1530 1530 1531 1532 1532 1532 1532 1532 1532 1532 1532 1532
1496 1496 1496 1497 1497 1498 1498 1499 1500 1501 1502 1504 1504 1505 1506 1508 1509 1510 1512 1513 1514 1516 1517 1518 1520 1521 1522 1523 1524 1525 1526 1527 1528 1529 1529 1530 1530 1530 1530 1530 1530 1530 1530
1493 1493 1493 1494 1494 1495 1495 1496 1497 1498 1499 1501 1502 1502 1503 1505 1506 1508 1509 1510 1511 1513 1515 1516 1517 1518 1520 1520 1521 1522 1523 1525 1525 1526 1527 1527 1528 1528 1528 1528 1528 1528 1528
1488 1488 1489 1490 1491 1492 1492 1492 1493 1495 1496 1497 1499 1500 1501 1502 1503 1505 1506 1507 1508 1510 1512 1513 1515 1516 1517 1518 1519 1520 1521 1522 1523 1523 1524 1525 1525 1526 1526 1526 1525 1525 1525
1484 1485 1486 1487 1487 1488 1489 1490 1491 1492 1493 1494 1496 1497 1498 1499 1500 1502 1503 1504 1505 1507 1509 1510 1511 1513 1514 1516 1517 1517 1518 1520 1520 1520 1521 1521 1522 1523 1523 1523 1523 1523 1523
1480 1481 1482 1483 1484 1485 1486 1486 1488 1489 1490 1491 1492 1493 1494 1496 1497 1499 1500 1501 1502 1504 1505 1507 1509 1510 1511 1513 1515 1516 1517 1515 1516 1517 1517 1518 1519 1519 1519 1519 1520 1520 1520
1478 1479 1479 1480 1481 1481 1482 1483 1483 1485 1486 1487 1488 1490 1491 1493 1494 1495 1497 1498 1499 1501 1503 1504 1506 1508 1509 1510 1512 1514 1515 1514 1514 1513 1514 1515 1515 1516 1516 1516 1517 1517 1517
1475 1476 1476 1477 1477 1478 1479 1479 1480 1482 1483 1484 1486 1487 1488 1489 1491 1492 1494 1495 1496 1498 1500 1501 1503 1505 1506 1508 1509 1510 1511 1512 1512 1511 1510 1510 1511 1512 1512 1513 1513 1513 1513
1472 1472 1473 1473 1473 1474 1475 1476 1477 1478 1480 1481 1482 1483 1485 1486 1487 1489 1490 1492 1493 1495 1497 1498 1500 1502 1503 1504 1506 1507 1507 1508 1508 1509 1508 1507 1507 1508 1509 1509 1509 1509 1509